Regional Weather Roundup
Issued by NWS

Home | Current Version | Previous Version | Graphics & Text | Print | Product List | Glossary On
Versions: 1 2 3 4 5 6 7 8 9 10 11 12 13 14 15 16 17 18 19 20 21 22 23 24 25 26 27 28 29 30 31 32 33 34 35 36 37 38 39 40 41 42 43 44 45 46 47 48 49 50
000
ASUS43 KOAX 250502
RWRNE

WEATHER ROUNDUP FOR NEBRASKA
NATIONAL WEATHER SERVICE OMAHA NE
1200 AM CDT MON MAY 25 2015

NOTES: SATELLITE DATA IS BEING USED TO AUGMENT CLOUD COVER ABOVE
       12000 FEET.
       "FAIR" INDICATES FEW OR NO CLOUDS BELOW 12,000 FEET WITH NO
       SIGNIFICANT WEATHER AND/OR OBSTRUCTIONS TO VISIBILITY.

  * THESE STATIONS DO NOT REPORT WEATHER SUCH AS RAIN...SNOW OR FOG.

NEZ001>004-019>022-054>056-250600-
NEBRASKA PANHANDLE

CITY           SKY/WX    TMP DP  RH WIND       PRES   REMARKS
SCOTTSBLUFF    CLOUDY    53  50  89 S6        29.85R
ALLIANCE       LGT RAIN  52  48  86 E15       29.84R
CHADRON        LGT RAIN  54  50  86 SE12      29.82F
SIDNEY         CLOUDY    52  47  83 NE8       29.84F
$$

NEZ057>060-069>072-079>082-250600-
SOUTHWEST NEBRASKA

CITY           SKY/WX    TMP DP  RH WIND       PRES   REMARKS
NORTH PLATTE   CLOUDY    53  51  93 CALM      29.80F
IMPERIAL       CLOUDY    52  50  93 SE7       29.79F
MCCOOK         CLOUDY    54  51  90 CALM      29.80F
$$

NEZ005>010-023>029-035>040-094-250600-
NORTH CENTRAL NEBRASKA

CITY           SKY/WX    TMP DP  RH WIND       PRES   REMARKS
VALENTINE      CLOUDY    59  56  89 NE6       29.82S
BROKEN BOW     CLOUDY    58  56  93 CALM      29.80S
ORD            MOCLDY    57  55  93 CALM      29.79S
$$

NEZ041-046>049-061>064-073>077-083>087-250600-
SOUTH CENTRAL NEBRASKA

CITY           SKY/WX    TMP DP  RH WIND       PRES   REMARKS
GRAND ISLAND   PTCLDY    59  57  93 S6        29.80S
HASTINGS       MOCLDY    61  59  93 S7        29.80S
KEARNEY *      MOCLDY    57  55  94 S5        29.81F
$$

NEZ011>018-030>034-042>045-250600-
NORTHEAST NEBRASKA

CITY           SKY/WX    TMP DP  RH WIND       PRES   REMARKS
NORFOLK        CLOUDY    60  59  96 CALM      29.78F
COLUMBUS *     CLOUDY    63  55  77 SW5       29.82F
TEKAMAH        CLOUDY    64  62  93 CALM      29.77F
$$

NEZ050>053-065>068-078-088>093-250600-
SOUTHEAST NEBRASKA

CITY           SKY/WX    TMP DP  RH WIND       PRES   REMARKS
LINCOLN        CLOUDY    62  60  93 CALM      29.80F
OMAHA EPPLEY   CLOUDY    66  61  84 SW6       29.78S
FALLS CITY     CLOUDY    63  61  93 S6        29.81S
$$

NEZ044-045-051>053-067-250600-
OMAHA AREA

CITY           SKY/WX    TMP DP  RH WIND       PRES   REMARKS
OMAHA EPPLEY   CLOUDY    66  61  84 SW6       29.78S
OFFUTT AFB     CLOUDY    63  61  91 S5        29.78S
$$


USA.gov is the U.S. government's official web portal to all federal, state and local government web resources and services.